This demonstration page uses our WeatherBlox Daily Observations layout. Learn more.

Left ArrowRight Arrow

Hourly Observations for August 13, 2018

Temp ( °F °C ) Dew Point ( °F °C ) Humidity (%) Winds ( mph kmh ) Pressure ( in mb ) Visibility ( mi km ) Precip ( " mm )
12:59 am 00:59 Mostly Cloudy 73 22.8 71 21.7 94 94 ESE 3 6 29.99 1016 10 16 0.00 0.03
1:59 am 01:59 Mostly Cloudy 74 23.3 72 22.2 94 94 Calm 29.98 1015 10 16 0.00 0.00
2:43 am 02:43 Mostly Cloudy 74 23.3 72 22.2 94 94 SW 3 6 30.00 1016 9 14 0.00 0.00
2:59 am 02:59 Cloudy with Light Rain 74 23.3 72 22.2 94 94 WSW 6 9 30.01 1016 9 14 0.00 0.03
3:14 am 03:14 Mostly Cloudy 75 23.9 72 22.2 90 90 WSW 6 9 30.03 1017 10 16 0.00 0.03
3:27 am 03:27 Mostly Cloudy 75 23.9 72 22.2 90 90 W 8 13 30.00 1016 10 16 0.00 0.03
3:34 am 03:34 Mostly Cloudy 74 23.3 72 22.2 94 94 W 7 11 30.00 1016 10 16 0.00 0.03
3:46 am 03:46 Mostly Cloudy with Light Rain 75 23.9 72 22.2 90 90 W 9 15 30.00 1016 9 14 0.00 0.03
3:49 am 03:49 Mostly Cloudy with Light Rain 74 23.3 72 22.2 94 94 W 9 15 30.00 1016 8 13 0.00 0.03
3:59 am 03:59 Cloudy with Light Rain 74 23.3 72 22.2 94 94 W 7 11 30.01 1016 9 14 0.01 0.25
4:57 am 04:57 Mostly Cloudy with Light Rain 73 23 72 22 94 94 NW 5 7 30.00 1016 7 11 0.01 0.25
4:59 am 04:59 Mostly Cloudy with Light Rain 74 23.3 72 22.2 94 94 NW 3 6 29.98 1015 7 11 0.01 0.25
5:59 am 05:59 Mostly Cloudy 73 22.8 71 21.7 94 94 WNW 10 17 29.99 1016 10 16 0.01 0.25
6:59 am 06:59 Mostly Cloudy 73 22.8 70 21.1 90 90 WNW 7 11 30.00 1016 10 16 0.00 0.00
7:59 am 07:59 Mostly Cloudy 75 23.9 71 21.7 88 88 WSW 6 9 30.00 1016 10 16 0.00 0.00
8:59 am 08:59 Mostly Cloudy 76 24.4 71 21.7 85 85 SW 8 13 30.02 1017 10 16 0.00 0.00
9:59 am 09:59 Mostly Cloudy 77 25 70 21.1 79 79 SW 7 11 30.03 1017 10 16 0.00 0.00
10:59 am 10:59 Mostly Cloudy 78 25.6 70 21.1 76 76 WSW 8 13 30.03 1017 10 16 0.00 0.00
11:18 am 11:18 Mostly Cloudy 78 25.6 70 21.1 76 76 W 7 11 30.03 1017 10 16 0.00 0.00
11:59 am 11:59 Mostly Cloudy 79 26.1 70 21.1 74 74 W 10 17 30.02 1017 10 16 0.00 0.00
12:59 pm 12:59 Mostly Cloudy 80 26.7 69 20.6 69 69 W 10 17 30.01 1016 10 16 0.00 0.00
1:40 pm 13:40 Mostly Cloudy 81 27.2 70 21.1 69 69 W 9 15 30.00 1016 10 16 0.00 0.00
1:59 pm 13:59 Mostly Cloudy 82 27.8 70 21.1 67 67 SW 8 13 30.00 1016 10 16 0.00 0.00
2:59 pm 14:59 Mostly Cloudy 82 27.8 70 21.1 67 67 VRB 3 6 29.98 1015 10 16 0.00 0.00
3:59 pm 15:59 Mostly Cloudy 84 28.9 70 21.1 63 63 VRB 6 9 29.96 1014 10 16 0.00 0.00
4:59 pm 16:59 Mostly Cloudy 85 29.4 71 21.7 63 63 W 6 9 29.94 1014 10 16 0.00 0.00
5:59 pm 17:59 Mostly Cloudy 84 28.9 70 21.1 63 63 WSW 8 13 29.94 1014 9 14 0.00 0.00
6:59 pm 18:59 Mostly Cloudy 82 27.8 68 20 63 63 SW 7 11 29.93 1014 10 16 0.00 0.00
7:59 pm 19:59 Mostly Cloudy 80 26.7 68 20 67 67 SW 6 9 29.95 1014 9 14 0.00 0.00
8:59 pm 20:59 Mostly Cloudy 79 26.1 70 21.1 74 74 SW 6 9 29.98 1015 10 16 0.00 0.00
9:59 pm 21:59 Mostly Cloudy 79 26.1 70 21.1 74 74 WSW 6 9 29.98 1015 10 16 0.00 0.00
10:59 pm 22:59 Mostly Cloudy 74 23.3 65 18.3 74 74 W 12 19 29.98 1015 10 16 0.00 0.00
11:59 pm 23:59 Mostly Cloudy 73 22.8 65 18.3 76 76 W 5 7 29.97 1015 10 16 0.00 0.00

Powered by AerisWeather